Home > Weather > Prague > Past weeks

Flag for Czech Republic Past Weather in Prague, Czech Republic — Yesterday and Last 2 Weeks

Now
66 °F

Passing clouds.


Feels Like: 66 °F
Forecast: 61 / 81 °F
Wind: 6 mph from South

Location: Prague Ruzyne Airport

Current Time: Jun 30, 2016 at 9:41:02 PM

Latest Report: Jun 30, 2016 at 9:00 PM


Visibility: N/A

Pressure: 30.01 "Hg

Humidity: 83%

Dew Point: 61 °F

Location of PragueLocation

Past Weather in Prague — Graph

°F

Prague Temperature Yesterday

Maximum temperature yesterday: 77 °F (at 2:30 PM)
Minimum temperature yesterday: 55 °F (at 12:00 AM)
Average temperature yesterday: 67 °F

High & Low Weather Summary for the Past Weeks

 TemperatureHumidityPressure
High88 °F (Jun 24, 4:00 PM)100% (Jun 17, 1:30 AM)30.30 "Hg (Jun 17, 1:30 AM)
Low50 °F (Jun 16, 2:30 AM)40% (Jun 23, 3:30 PM)29.47 "Hg (Jun 17, 5:30 AM)
Average66 °F74%30.02 "Hg
* Reported Jun 15 8:00 PM — Jun 30 8:00 PM, Prague, Weather by CustomWeather, © 2016

Note: Actual official high and low records may vary slightly from our data, if they occured in-between our weather recording intervals... More about our weather records

Advertising

Prague Weather History for the Previous 24 Hours

Scroll right to see more
 ConditionsComfort  
Time TempWeatherWind HumidityBarometerVisibility
8:00 PM
Thu, Jun 30
70 °FPassing clouds.9 mph73%30.01 "HgN/A
7:30 PM72 °FPassing clouds.8 mph65%29.98 "HgN/A
7:00 PM72 °FPassing clouds.6 mph65%29.98 "HgN/A
6:30 PM72 °FPassing clouds.6 mph69%29.98 "HgN/A
6:00 PM72 °FPassing clouds.7 mph69%29.98 "HgN/A
5:30 PM72 °FPassing clouds.9 mph69%29.98 "HgN/A
5:00 PM70 °FPassing clouds.12 mph69%30.01 "HgN/A
4:30 PM68 °FPassing clouds.7 mph78%30.01 "HgN/A
4:00 PM64 °FLight rain. Passing clouds.7 mph88%30.01 "HgN/A
3:30 PM66 °FLight rain. Passing clouds.14 mph83%30.01 "HgN/A
3:00 PM70 °FLight rain. Passing clouds.15 mph73%30.01 "HgN/A
2:30 PM72 °FPassing clouds.16 mph69%30.01 "HgN/A
2:00 PM73 °FPassing clouds.12 mph69%29.98 "HgN/A
1:30 PM73 °FPassing clouds.7 mph65%29.98 "HgN/A
1:00 PM72 °FPassing clouds.7 mph73%30.01 "HgN/A
12:30 PM73 °FPassing clouds.6 mph69%29.98 "HgN/A
12:00 PM75 °FScattered clouds.14 mph61%29.98 "HgN/A
11:30 AM73 °FScattered clouds.8 mph61%29.98 "HgN/A
11:00 AM72 °FPassing clouds.2 mph69%29.98 "HgN/A
10:30 AM72 °FPassing clouds.3 mph65%29.98 "HgN/A
10:00 AM72 °FPassing clouds.2 mph65%29.98 "HgN/A
9:30 AM70 °FPassing clouds.2 mph69%29.98 "HgN/A
9:00 AM68 °FPassing clouds.2 mph69%29.98 "HgN/A
8:30 AM66 °FPassing clouds.2 mph73%29.98 "HgN/A
8:00 AM64 °FPassing clouds.5 mph78%29.98 "HgN/A
7:30 AM64 °FPassing clouds.6 mph78%29.95 "HgN/A
7:00 AM64 °FPassing clouds.3 mph83%29.95 "HgN/A
6:30 AM61 °FSunny.2 mph94%29.95 "Hg10 mi
6:00 AM59 °FSunny.1 mph94%29.95 "Hg10 mi
5:30 AM59 °FClear.3 mph94%29.95 "Hg10 mi
5:00 AM57 °FPassing clouds.5 mph94%29.95 "HgN/A
4:30 AM57 °FClear.5 mph94%29.95 "Hg10 mi
4:00 AM57 °FClear.2 mph88%29.95 "Hg10 mi
3:30 AM57 °FClear.5 mph94%29.95 "Hg10 mi
3:00 AM57 °FClear.2 mph94%29.95 "Hg10 mi
2:30 AM59 °FClear.No wind88%29.95 "Hg10 mi
2:00 AM59 °FClear.2 mph88%29.95 "Hg10 mi
1:30 AM59 °FClear.5 mph88%29.95 "Hg10 mi
1:00 AM59 °FClear.3 mph88%29.95 "Hg10 mi
12:30 AM61 °FClear.No wind83%29.95 "Hg10 mi
12:00 AM63 °FPassing clouds.3 mph77%29.95 "HgN/A
11:30 PM
Wed, Jun 29
63 °FClear.2 mph77%29.95 "Hg10 mi
11:00 PM63 °FClear.5 mph77%29.95 "Hg10 mi
10:30 PM64 °FPassing clouds.7 mph73%29.95 "HgN/A
10:00 PM64 °FSunny.7 mph73%29.95 "Hg10 mi
9:30 PM66 °FSunny.7 mph73%29.95 "Hg10 mi
9:00 PM68 °FSunny.7 mph69%29.95 "Hg10 mi
Weather by CustomWeather, © 2016

See weather overviewHow to use our weather pages